Time,TemperatureF,DewpointF,PressureIn,WindDirection,WindDirectionDegrees,WindSpeedMPH,WindSpeedGustMPH,Humidity,HourlyPrecipIn,Conditions,Clouds,dailyrainin,SoftwareType,DateUTC
2013-01-24 00:03:00,48.0,46.0,30.26,West,277,0.0,1.0,93,0.00,,,0.00,,2013-01-24 06:03:00,
2013-01-24 00:12:00,48.0,46.0,30.26,West,277,0.0,1.0,93,0.00,,,0.00,,2013-01-24 06:12:00,
2013-01-24 00:22:00,47.0,45.0,30.26,WNW,286,0.0,2.0,94,0.00,,,0.00,,2013-01-24 06:22:00,
2013-01-24 00:32:00,47.0,45.0,30.26,WNW,282,1.0,3.0,94,0.00,,,0.00,,2013-01-24 06:32:00,
2013-01-24 00:42:00,47.0,45.0,30.26,WNW,282,1.0,3.0,94,0.00,,,0.00,,2013-01-24 06:42:00,
2013-01-24 00:52:00,48.0,46.0,30.26,West,280,0.0,4.0,94,0.00,,,0.00,,2013-01-24 06:52:00,
2013-01-24 01:03:00,48.0,46.0,30.26,WNW,284,1.0,3.0,94,0.00,,,0.00,,2013-01-24 07:03:00,
2013-01-24 01:12:00,48.0,46.0,30.26,WNW,284,1.0,3.0,94,0.00,,,0.00,,2013-01-24 07:12:00,
2013-01-24 01:23:00,48.0,46.0,30.25,West,269,1.0,2.0,94,0.00,,,0.00,,2013-01-24 07:23:00,
2013-01-24 01:33:00,48.0,46.0,30.24,West,263,1.0,5.0,94,0.00,,,0.00,,2013-01-24 07:33:00,
2013-01-24 01:43:00,48.0,46.0,30.24,West,263,1.0,5.0,94,0.00,,,0.00,,2013-01-24 07:43:00,
2013-01-24 01:52:00,48.0,47.0,30.24,West,269,2.0,4.0,95,0.00,,,0.00,,2013-01-24 07:52:00,
2013-01-24 02:03:00,49.0,47.0,30.24,WSW,257,2.0,5.0,94,0.00,,,0.00,,2013-01-24 08:03:00,
2013-01-24 02:13:00,49.0,47.0,30.24,WSW,257,2.0,5.0,94,0.00,,,0.00,,2013-01-24 08:13:00,
2013-01-24 02:23:00,49.0,48.0,30.24,West,270,3.0,5.0,95,0.00,,,0.00,,2013-01-24 08:23:00,
2013-01-24 02:33:00,49.0,47.0,30.24,WSW,256,2.0,5.0,94,0.00,,,0.00,,2013-01-24 08:33:00,
2013-01-24 02:43:00,49.0,47.0,30.24,WSW,256,2.0,5.0,94,0.00,,,0.00,,2013-01-24 08:43:00,
2013-01-24 02:52:00,49.0,47.0,30.23,West,266,1.0,5.0,94,0.00,,,0.00,,2013-01-24 08:52:00,
2013-01-24 03:03:00,49.0,47.0,30.23,West,266,2.0,5.0,94,0.00,,,0.00,,2013-01-24 09:03:00,
2013-01-24 03:13:00,49.0,47.0,30.23,West,266,2.0,5.0,94,0.00,,,0.00,,2013-01-24 09:13:00,
2013-01-24 03:23:00,49.0,47.0,30.23,West,275,2.0,5.0,93,0.00,,,0.00,,2013-01-24 09:23:00,
2013-01-24 03:33:00,49.0,47.0,30.23,West,266,2.0,6.0,92,0.00,,,0.00,,2013-01-24 09:33:00,
2013-01-24 03:43:00,49.0,47.0,30.23,West,266,2.0,6.0,92,0.00,,,0.00,,2013-01-24 09:43:00,
2013-01-24 03:52:00,50.0,47.0,30.23,WSW,250,2.0,6.0,91,0.00,,,0.00,,2013-01-24 09:52:00,
2013-01-24 04:03:00,50.0,47.0,30.23,West,271,2.0,6.0,91,0.00,,,0.00,,2013-01-24 10:03:00,
2013-01-24 04:12:00,50.0,47.0,30.23,West,271,2.0,6.0,91,0.00,,,0.00,,2013-01-24 10:12:00,
2013-01-24 04:23:00,49.0,46.0,30.23,West,264,2.0,5.0,91,0.00,,,0.00,,2013-01-24 10:23:00,
2013-01-24 04:33:00,49.0,47.0,30.23,WNW,288,2.0,5.0,92,0.00,,,0.00,,2013-01-24 10:33:00,
2013-01-24 04:43:00,49.0,47.0,30.23,WNW,288,2.0,5.0,92,0.00,,,0.00,,2013-01-24 10:43:00,
2013-01-24 04:52:00,49.0,46.0,30.23,WSW,257,1.0,5.0,91,0.00,,,0.00,,2013-01-24 10:52:00,
2013-01-24 05:03:00,49.0,46.0,30.23,West,276,1.0,4.0,91,0.00,,,0.00,,2013-01-24 11:03:00,
2013-01-24 05:12:00,49.0,46.0,30.23,West,276,1.0,4.0,91,0.00,,,0.00,,2013-01-24 11:12:00,
2013-01-24 05:23:00,49.0,46.0,30.24,West,259,1.0,6.0,91,0.00,,,0.00,,2013-01-24 11:23:00,
2013-01-24 05:33:00,49.0,46.0,30.24,West,276,2.0,6.0,91,0.00,,,0.00,,2013-01-24 11:33:00,
2013-01-24 05:43:00,49.0,46.0,30.24,West,276,2.0,6.0,91,0.00,,,0.00,,2013-01-24 11:43:00,
2013-01-24 05:53:00,49.0,46.0,30.24,West,273,3.0,5.0,90,0.00,,,0.00,,2013-01-24 11:53:00,
2013-01-24 06:03:00,49.0,46.0,30.24,West,267,3.0,6.0,90,0.00,,,0.00,,2013-01-24 12:03:00,
2013-01-24 06:12:00,49.0,46.0,30.24,West,267,3.0,6.0,90,0.00,,,0.00,,2013-01-24 12:12:00,
2013-01-24 06:23:00,49.0,46.0,30.24,West,267,3.0,6.0,90,0.00,,,0.00,,2013-01-24 12:23:00,
2013-01-24 06:33:00,49.0,46.0,30.24,West,281,3.0,8.0,90,0.00,,,0.00,,2013-01-24 12:33:00,
2013-01-24 06:43:00,49.0,46.0,30.24,West,281,3.0,8.0,90,0.00,,,0.00,,2013-01-24 12:43:00,
2013-01-24 06:53:00,49.0,46.0,30.25,WNW,282,2.0,8.0,90,0.00,,,0.00,,2013-01-24 12:53:00,
2013-01-24 07:03:00,49.0,46.0,30.25,West,279,2.0,8.0,90,0.00,,,0.00,,2013-01-24 13:03:00,
2013-01-24 07:13:00,49.0,46.0,30.25,West,279,2.0,8.0,90,0.00,,,0.00,,2013-01-24 13:13:00,
2013-01-24 07:23:00,49.0,46.0,30.24,West,260,4.0,8.0,91,0.00,,,0.00,,2013-01-24 13:23:00,
2013-01-24 07:33:00,49.0,46.0,30.25,West,281,3.0,7.0,91,0.00,,,0.00,,2013-01-24 13:33:00,
2013-01-24 07:43:00,49.0,46.0,30.25,West,281,3.0,7.0,91,0.00,,,0.00,,2013-01-24 13:43:00,
2013-01-24 07:53:00,50.0,47.0,30.25,WSW,252,4.0,7.0,90,0.00,,,0.00,,2013-01-24 13:53:00,
2013-01-24 08:03:00,51.0,48.0,30.26,West,271,3.0,9.0,90,0.00,,,0.00,,2013-01-24 14:03:00,
2013-01-24 08:12:00,51.0,48.0,30.26,West,271,3.0,9.0,90,0.00,,,0.00,,2013-01-24 14:12:00,
2013-01-24 08:23:00,51.0,48.0,30.26,WNW,292,3.0,8.0,89,0.00,,,0.00,,2013-01-24 14:23:00,
2013-01-24 08:33:00,52.0,49.0,30.26,West,267,3.0,8.0,88,0.00,,,0.00,,2013-01-24 14:33:00,
2013-01-24 08:43:00,52.0,49.0,30.26,West,267,3.0,8.0,88,0.00,,,0.00,,2013-01-24 14:43:00,
2013-01-24 08:53:00,53.0,50.0,30.27,West,273,3.0,9.0,88,0.00,,,0.00,,2013-01-24 14:53:00,
2013-01-24 09:04:00,55.0,51.0,30.27,WNW,297,4.0,7.0,85,0.00,,,0.00,,2013-01-24 15:04:00,
2013-01-24 09:13:00,55.0,51.0,30.27,WNW,297,4.0,7.0,85,0.00,,,0.00,,2013-01-24 15:13:00,
2013-01-24 09:23:00,55.0,51.0,30.27,WNW,297,4.0,7.0,85,0.00,,,0.00,,2013-01-24 15:23:00,
2013-01-24 09:33:00,55.0,51.0,30.27,WNW,297,4.0,7.0,85,0.00,,,0.00,,2013-01-24 15:33:00,
2013-01-24 09:43:00,57.0,52.0,30.28,WNW,292,4.0,9.0,82,0.00,,,0.00,,2013-01-24 15:43:00,
2013-01-24 09:53:00,59.0,53.0,30.28,WNW,283,4.0,9.0,81,0.00,,,0.00,,2013-01-24 15:53:00,
2013-01-24 10:04:00,60.0,53.0,30.29,WNW,285,3.0,9.0,78,0.00,,,0.00,,2013-01-24 16:04:00,
2013-01-24 10:12:00,60.0,53.0,30.29,WNW,285,3.0,9.0,78,0.00,,,0.00,,2013-01-24 16:12:00,
2013-01-24 10:23:00,60.0,53.0,30.29,West,270,2.0,10.0,77,0.00,,,0.00,,2013-01-24 16:23:00,
2013-01-24 10:33:00,60.0,53.0,30.29,West,281,2.0,9.0,79,0.00,,,0.00,,2013-01-24 16:33:00,
2013-01-24 10:43:00,60.0,53.0,30.29,West,281,2.0,9.0,79,0.00,,,0.00,,2013-01-24 16:43:00,
2013-01-24 11:03:00,61.0,54.0,30.29,WNW,284,0.0,7.0,78,0.00,,,0.00,,2013-01-24 17:03:00,
2013-01-24 11:12:00,61.0,54.0,30.29,WNW,284,0.0,7.0,78,0.00,,,0.00,,2013-01-24 17:12:00,
2013-01-24 11:22:00,61.0,54.0,30.29,WNW,284,0.0,7.0,78,0.00,,,0.00,,2013-01-24 17:22:00,
2013-01-24 11:32:00,63.0,55.0,30.27,WSW,238,3.0,8.0,74,0.00,,,0.00,,2013-01-24 17:32:00,
2013-01-24 11:42:00,63.0,55.0,30.27,WSW,238,3.0,8.0,74,0.00,,,0.00,,2013-01-24 17:42:00,
2013-01-24 11:52:00,65.0,56.0,30.27,West,280,4.0,7.0,72,0.00,,,0.00,,2013-01-24 17:52:00,
2013-01-24 12:03:00,65.0,55.0,30.26,West,280,3.0,10.0,71,0.00,,,0.00,,2013-01-24 18:03:00,
2013-01-24 12:12:00,65.0,55.0,30.25,West,278,5.0,13.0,70,0.00,,,0.00,,2013-01-24 18:12:00,
2013-01-24 12:23:00,65.0,55.0,30.25,West,278,5.0,13.0,70,0.00,,,0.00,,2013-01-24 18:23:00,
2013-01-24 12:33:00,66.0,55.0,30.24,WSW,257,3.0,6.0,67,0.00,,,0.00,,2013-01-24 18:33:00,
2013-01-24 12:42:00,66.0,55.0,30.24,WSW,257,3.0,6.0,67,0.00,,,0.00,,2013-01-24 18:42:00,
2013-01-24 12:53:00,66.0,55.0,30.23,WNW,285,6.0,10.0,67,0.00,,,0.00,,2013-01-24 18:53:00,
2013-01-24 13:02:00,67.0,56.0,30.23,NW,309,2.0,9.0,67,0.00,,,0.00,,2013-01-24 19:02:00,
2013-01-24 13:13:00,67.0,56.0,30.23,NW,309,2.0,9.0,67,0.00,,,0.00,,2013-01-24 19:13:00,
2013-01-24 13:22:00,68.0,55.0,30.22,SW,235,4.0,15.0,64,0.00,,,0.00,,2013-01-24 19:22:00,
2013-01-24 13:33:00,68.0,55.0,30.22,WNW,291,6.0,10.0,63,0.00,,,0.00,,2013-01-24 19:33:00,
2013-01-24 13:42:00,68.0,55.0,30.22,WNW,291,6.0,10.0,63,0.00,,,0.00,,2013-01-24 19:42:00,
2013-01-24 13:52:00,68.0,55.0,30.22,WNW,291,6.0,10.0,63,0.00,,,0.00,,2013-01-24 19:52:00,
2013-01-24 14:02:00,68.0,56.0,30.21,West,264,4.0,10.0,66,0.00,,,0.00,,2013-01-24 20:02:00,
2013-01-24 14:12:00,68.0,56.0,30.21,West,264,4.0,10.0,66,0.00,,,0.00,,2013-01-24 20:12:00,
2013-01-24 14:22:00,67.0,55.0,30.21,West,281,4.0,11.0,66,0.00,,,0.00,,2013-01-24 20:22:00,
2013-01-24 14:33:00,68.0,55.0,30.21,WNW,285,6.0,11.0,64,0.00,,,0.00,,2013-01-24 20:33:00,
2013-01-24 14:42:00,68.0,55.0,30.21,WNW,285,6.0,11.0,64,0.00,,,0.00,,2013-01-24 20:42:00,
2013-01-24 14:52:00,68.0,55.0,30.20,WNW,300,7.0,12.0,64,0.00,,,0.00,,2013-01-24 20:52:00,
2013-01-24 15:03:00,68.0,54.0,30.20,WNW,291,5.0,10.0,62,0.00,,,0.00,,2013-01-24 21:03:00,
2013-01-24 15:13:00,68.0,54.0,30.20,WNW,291,5.0,10.0,62,0.00,,,0.00,,2013-01-24 21:13:00,
2013-01-24 15:22:00,69.0,55.0,30.20,West,276,2.0,8.0,62,0.00,,,0.00,,2013-01-24 21:22:00,
2013-01-24 15:33:00,68.0,55.0,30.20,West,270,4.0,9.0,63,0.00,,,0.00,,2013-01-24 21:33:00,
2013-01-24 15:43:00,68.0,55.0,30.20,West,270,4.0,9.0,63,0.00,,,0.00,,2013-01-24 21:43:00,
2013-01-24 15:52:00,68.0,55.0,30.20,WSW,252,3.0,8.0,63,0.00,,,0.00,,2013-01-24 21:52:00,
2013-01-24 16:03:00,69.0,55.0,30.20,West,264,2.0,6.0,62,0.00,,,0.00,,2013-01-24 22:03:00,
2013-01-24 16:12:00,69.0,55.0,30.20,West,264,2.0,6.0,62,0.00,,,0.00,,2013-01-24 22:12:00,
2013-01-24 16:22:00,68.0,54.0,30.20,West,274,1.0,5.0,62,0.00,,,0.00,,2013-01-24 22:22:00,
2013-01-24 16:33:00,67.0,55.0,30.20,WNW,286,1.0,4.0,65,0.00,,,0.00,,2013-01-24 22:33:00,
2013-01-24 16:42:00,67.0,55.0,30.20,WNW,286,1.0,4.0,65,0.00,,,0.00,,2013-01-24 22:42:00,
2013-01-24 16:52:00,67.0,54.0,30.20,WNW,283,2.0,3.0,64,0.00,,,0.00,,2013-01-24 22:52:00,
2013-01-24 17:03:00,66.0,56.0,30.20,West,281,0.0,2.0,70,0.00,,,0.00,,2013-01-24 23:03:00,
2013-01-24 17:13:00,66.0,56.0,30.20,West,281,0.0,2.0,70,0.00,,,0.00,,2013-01-24 23:13:00,
2013-01-24 17:22:00,65.0,56.0,30.20,West,269,0.0,1.0,72,0.00,,,0.00,,2013-01-24 23:22:00,
2013-01-24 17:32:00,63.0,55.0,30.20,West,276,0.0,0.0,75,0.00,,,0.00,,2013-01-24 23:32:00,
2013-01-24 17:42:00,63.0,55.0,30.20,West,276,0.0,0.0,75,0.00,,,0.00,,2013-01-24 23:42:00,
2013-01-24 17:52:00,60.0,54.0,30.20,West,276,0.0,0.0,80,0.00,,,0.00,,2013-01-24 23:52:00,
2013-01-24 18:02:00,59.0,54.0,30.21,West,275,0.0,0.0,83,0.00,,,0.00,,2013-01-25 00:02:00,
2013-01-24 18:12:00,59.0,54.0,30.21,West,275,0.0,0.0,83,0.00,,,0.00,,2013-01-25 00:12:00,
2013-01-24 18:22:00,57.0,53.0,30.22,West,276,0.0,0.0,85,0.00,,,0.00,,2013-01-25 00:22:00,
2013-01-24 18:32:00,57.0,53.0,30.22,West,276,0.0,0.0,85,0.00,,,0.00,,2013-01-25 00:32:00,
2013-01-24 18:42:00,57.0,53.0,30.22,West,276,0.0,0.0,85,0.00,,,0.00,,2013-01-25 00:42:00,
2013-01-24 18:52:00,56.0,52.0,30.22,ESE,120,0.0,1.0,88,0.00,,,0.00,,2013-01-25 00:52:00,
2013-01-24 19:02:00,56.0,53.0,30.22,ESE,121,0.0,0.0,89,0.00,,,0.00,,2013-01-25 01:02:00,
2013-01-24 19:13:00,56.0,53.0,30.22,ESE,121,0.0,0.0,89,0.00,,,0.00,,2013-01-25 01:13:00,
2013-01-24 19:22:00,55.0,52.0,30.22,ESE,121,0.0,0.0,89,0.00,,,0.00,,2013-01-25 01:22:00,
2013-01-24 19:32:00,54.0,51.0,30.22,ESE,121,0.0,0.0,91,0.00,,,0.00,,2013-01-25 01:32:00,
2013-01-24 19:42:00,54.0,51.0,30.22,ESE,121,0.0,0.0,91,0.00,,,0.00,,2013-01-25 01:42:00,
2013-01-24 19:52:00,54.0,52.0,30.23,East,98,0.0,2.0,92,0.00,,,0.00,,2013-01-25 01:52:00,
2013-01-24 20:03:00,54.0,51.0,30.24,East,83,0.0,1.0,91,0.00,,,0.00,,2013-01-25 02:03:00,
2013-01-24 20:12:00,54.0,51.0,30.24,East,83,0.0,1.0,91,0.00,,,0.00,,2013-01-25 02:12:00,
2013-01-24 20:22:00,54.0,51.0,30.23,East,84,0.0,1.0,91,0.00,,,0.00,,2013-01-25 02:22:00,
2013-01-24 20:33:00,53.0,51.0,30.23,East,81,0.0,1.0,92,0.00,,,0.00,,2013-01-25 02:33:00,
2013-01-24 20:42:00,53.0,51.0,30.23,East,81,0.0,1.0,92,0.00,,,0.00,,2013-01-25 02:42:00,
2013-01-24 20:52:00,53.0,50.0,30.24,East,82,0.0,0.0,91,0.00,,,0.00,,2013-01-25 02:52:00,
2013-01-24 21:02:00,53.0,50.0,30.24,East,82,0.0,0.0,91,0.00,,,0.00,,2013-01-25 03:02:00,
2013-01-24 21:12:00,51.0,49.0,30.24,East,82,0.0,0.0,93,0.00,,,0.00,,2013-01-25 03:12:00,
2013-01-24 21:22:00,51.0,49.0,30.24,East,82,0.0,0.0,93,0.00,,,0.00,,2013-01-25 03:22:00,
2013-01-24 21:33:00,51.0,49.0,30.24,East,82,0.0,0.0,94,0.00,,,0.00,,2013-01-25 03:33:00,
2013-01-24 21:42:00,51.0,49.0,30.24,East,82,0.0,0.0,94,0.00,,,0.00,,2013-01-25 03:42:00,
2013-01-24 21:52:00,51.0,50.0,30.25,East,82,0.0,0.0,95,0.00,,,0.00,,2013-01-25 03:52:00,
2013-01-24 22:02:00,51.0,50.0,30.24,East,82,0.0,0.0,95,0.00,,,0.00,,2013-01-25 04:02:00,
2013-01-24 22:12:00,51.0,50.0,30.24,East,82,0.0,0.0,95,0.00,,,0.00,,2013-01-25 04:12:00,
2013-01-24 22:22:00,51.0,50.0,30.24,East,82,0.0,0.0,95,0.00,,,0.00,,2013-01-25 04:22:00,
2013-01-24 22:32:00,50.0,48.0,30.24,East,82,0.0,0.0,94,0.00,,,0.00,,2013-01-25 04:32:00,
2013-01-24 22:42:00,50.0,48.0,30.24,East,82,0.0,0.0,94,0.00,,,0.00,,2013-01-25 04:42:00,
2013-01-24 22:51:00,50.0,49.0,30.24,East,82,0.0,0.0,95,0.00,,,0.00,,2013-01-25 04:51:00,
2013-01-24 23:03:00,50.0,49.0,30.24,East,82,0.0,0.0,95,0.00,,,0.00,,2013-01-25 05:03:00,
2013-01-24 23:12:00,50.0,49.0,30.24,East,82,0.0,0.0,96,0.00,,,0.00,,2013-01-25 05:12:00,
2013-01-24 23:22:00,50.0,49.0,30.24,East,82,0.0,0.0,96,0.00,,,0.00,,2013-01-25 05:22:00,
2013-01-24 23:32:00,50.0,49.0,30.24,East,82,0.0,0.0,96,0.00,,,0.00,,2013-01-25 05:32:00,
2013-01-24 23:43:00,50.0,49.0,30.24,East,82,0.0,0.0,96,0.00,,,0.00,,2013-01-25 05:43:00,
2013-01-24 23:52:00,49.0,48.0,30.24,East,82,0.0,0.0,96,0.00,,,0.00,,2013-01-25 05:52:00,